Retour au catalogue

LEMUR 2 KREMPEL-BRO1

ActifScienceSSO
NORAD 63357·PAYLOAD·🇺🇸 United States

Lancé Mar 26, 2025 depuis Rocket Lab Launch Complex 1

Loading…

Prochains Passages (prochaines 24 heures)

TLE

FraisSource: Space-Track

Époque: Sep 13, 2026, 21:32 UTC

1 63357U 25061G   26256.89788775  .00003986  00000-0  21542-3 0  9991
2 63357  97.5714 232.3490 0017021 305.8853  54.0799 15.15160818 81060

Suivez LEMUR 2 KREMPEL-BRO1 en temps réel avec AllMySat

Download on the App Store